THURAYA-3

Last updated on Thu Jul 03 2025 00:02:44 GMT+0000 (Coordinated Universal Time)

1 32404U 08001A 25183.61927530 -.00000298 00000+0 00000+0 0 9992 2 32404 5.4152 34.8892 0002236 61.5463 145.8843 1.00270879 63987
UTC large
Height (km)
Speed (km/s)
/
Latitude / Longitude
Inclination (degrees)
Orbital Period (minutes)
Azimuth
Elevation
Range (km)
Doppler Factor

Next 0 passes for location: London (51.5072 / 0.1276)

Sorry there are no passes over London.